TimeCST,TemperatureF,Dew PointF,Humidity,Sea Level PressureIn,VisibilityMPH,Wind Direction,Wind SpeedMPH,Gust SpeedMPH,PrecipitationIn,Events,Conditions,WindDirDegrees,DateUTC
12:55 AM,38.8,29.1,68,30.14,10.0,NNW,8.1,-,N/A,,Clear,330,2013-03-02 06:55:00
1:55 AM,36.0,28.2,73,30.13,10.0,NW,5.8,-,N/A,,Clear,320,2013-03-02 07:55:00
2:55 AM,34.9,27.7,75,30.11,10.0,WNW,3.5,-,N/A,,Clear,300,2013-03-02 08:55:00
3:55 AM,33.3,27.5,79,30.13,10.0,West,4.6,-,N/A,,Clear,270,2013-03-02 09:55:00
4:55 AM,30.6,26.8,86,30.13,10.0,WNW,5.8,-,N/A,,Clear,290,2013-03-02 10:55:00
5:55 AM,29.3,26.1,88,30.13,10.0,WNW,5.8,-,N/A,,Clear,290,2013-03-02 11:55:00
6:55 AM,33.1,28.9,85,30.15,10.0,WNW,5.8,-,N/A,,Partly Cloudy,290,2013-03-02 12:55:00
7:55 AM,39.0,27.7,64,30.18,10.0,NW,11.5,-,N/A,,Clear,310,2013-03-02 13:55:00
8:55 AM,42.6,23.7,47,30.17,10.0,NW,13.8,20.7,N/A,,Partly Cloudy,320,2013-03-02 14:55:00
9:55 AM,45.5,22.8,41,30.16,10.0,WNW,17.3,-,N/A,,Partly Cloudy,300,2013-03-02 15:55:00
10:55 AM,48.2,21.7,35,30.15,10.0,NW,19.6,25.3,N/A,,Partly Cloudy,310,2013-03-02 16:55:00
11:55 AM,49.3,22.3,35,30.10,10.0,WNW,17.3,26.5,N/A,,Partly Cloudy,300,2013-03-02 17:55:00
12:55 PM,51.1,21.6,31,30.09,10.0,WNW,16.1,27.6,N/A,,Scattered Clouds,290,2013-03-02 18:55:00
1:55 PM,51.1,21.6,31,30.06,7.0,WNW,17.3,24.2,N/A,,Scattered Clouds,290,2013-03-02 19:55:00
2:55 PM,49.6,21.4,33,30.06,10.0,NW,15.0,26.5,N/A,,Scattered Clouds,320,2013-03-02 20:55:00
3:55 PM,47.1,22.5,38,30.07,10.0,NW,15.0,-,N/A,,Scattered Clouds,320,2013-03-02 21:55:00
4:55 PM,44.6,23.2,43,30.09,10.0,NNW,13.8,25.3,N/A,,Mostly Cloudy,330,2013-03-02 22:55:00
5:55 PM,43.0,22.3,44,30.12,10.0,NNW,16.1,-,N/A,,Mostly Cloudy,330,2013-03-02 23:55:00
6:55 PM,42.1,23.4,48,30.13,10.0,NNW,13.8,23.0,N/A,,Overcast,340,2013-03-03 00:55:00
7:03 PM,42.8,23.0,46,30.13,10.0,NNW,11.5,19.6,N/A,,Overcast,330,2013-03-03 01:03:00
7:55 PM,41.4,24.3,51,30.16,10.0,North,11.5,-,N/A,,Overcast,350,2013-03-03 01:55:00
8:55 PM,40.8,23.5,50,30.17,10.0,NNW,12.7,-,N/A,,Overcast,330,2013-03-03 02:55:00
9:55 PM,40.5,23.4,51,30.17,10.0,NNW,8.1,-,N/A,,Overcast,330,2013-03-03 03:55:00
10:55 PM,39.7,22.6,50,30.16,10.0,NNW,13.8,20.7,N/A,,Overcast,340,2013-03-03 04:55:00
11:55 PM,39.4,19.8,45,30.17,10.0,NW,10.4,-,N/A,,Overcast,310,2013-03-03 05:55:00